NOAA 16 DEB, 42419

Orbit data source: Space-Track

NOAA 16 DEB, 42419 is space debris in SSO originally from a launch on Thu, 21 Sep 2000 UTC launched from the Air Force Western Test Range (AFWTR). Debris objects in space refer to the collection of defunct objects orbiting the Earth. Examples of debris include non-operational satellites, rocket bodies, and fragments generated from explosions, collisions, or faulty payload assembly.

Loading next visibility...
Identifier
42419, 2000-055TP
Orbit
SSO
Country
Flag of USUS
Related business
Manufacturer
Unknown
Mission
Spacecraft
Bus & Motor
Unknown
Mass
Unknown
Launch date (UTC)
2000-09-21 (25 years ago)
Launch vehicle
Unknown
Launch site
Air Force Western Test Range (AFWTR)
Object type
Payload
Rocket body
Debris
Shape & HBR
Unknown shape, 0.1 m
Radar Cross Section
Small (<0.1 m²)

Expand to show TLE details & history
Last TLE update: 1 day ago

TLE from 1 day ago
0 NOAA 16 DEB
1 42419U 00055TP  25292.25462003  .00049886  00000-0  12172-1 0  9991
2 42419  98.8273  44.9199 0014398 323.6452  36.3762 14.52311980497747
Epoch: 2025-10-19T06:06Z
TLE epoch observation values (Epoch: 2025-10-19T06:06:39.170Z)
Latitude
-0.00011°
Longitude
-74.71721°
Altitude
712.839 km
Speed
7.504 km/s
True Right ascension
02h 59m 40s
True Declination
0° 00' 00"
Sunlit
Object was in full shadow at epoch
Visualization orbit readout
Latitude
Unknown
Longitude
Unknown
Altitude
Unknown
Speed
Unknown
Apparent Right ascension
Unknown
Apparent Declination
Unknown
Sunlit
N/A
Visualization observer readout
Local Sidereal Time
12:48:47
Azimuth
Unknown
Elevation
Unknown
Doppler factor
Unknown
Orbital elements
Apogee altitude
725.442 km
Perigee altitude
705.016 km
Semi-major axis
7,093.366 km
Eccentricity
0.00144
Inclination
98.8273°
RAAN
44.9199°
Arg. of periapsis
323.6452°
True anomaly
36.47419°
Mean anomaly
36.3762°
Eccentric anomaly
36.42518°
Mean motion
3.63299 °/min
Orbital period
99.09 mins
BSTAR
0.012172
Loading maneuver chart data...
Computing Atmospheric mass density...
Loading historical data...
Loading historical data...
Loading historical data...
Loading historical data...
Loading historical data...
Loading historical data...
Loading historical data...

Documentation

Showing up to 5 results
|